OBJECT AB, 69005

Orbit data source: Space-Track

You're viewing an Uncataloged Satellite

Recently launched and/or uncataloged satellites may have evolving metadata. Metadata may include but not limited to: Owner, Maufacturer, Bus, Motor, and Mission.

OBJECT AB, 69005 is a satellite in SSO that was launched on Sun, 03 May 2026 UTC launched from the Air Force Western Test Range (AFWTR). Unknown objects in Earth's orbit typically refer to objects detected orbiting the Earth but have not yet been identified or cataloged. These objects could be anything from previously untracked satellites, spent rocket stages, debris from satellite collisions, or even natural meteoroids temporarily captured by Earth's gravity.

Loading next visibility...
Identifier
69005, 2026-100AB
Orbit
SSO
Country
Flag of TBDTBD
Related business
None
Manufacturer
Unknown
Mission
Operational spacecraft
Bus & Motor
Unknown
Mass
Unknown
Launch date (UTC)
2026-05-03 (1 week ago)
Launch vehicle
Unknown
Launch site
Air Force Western Test Range (AFWTR)
Object type
Unknown
Shape & HBR
Unknown
Radar Cross Section
RCS unknown

Expand to show TLE details & history
Last TLE update: 8 hours ago

TLE from 8 hours ago
0 OBJECT AB
1 69005U 26100AB  26130.16668980  .00059389  00000-0  27343-2 0  9990
2 69005  97.4070  28.6668 0006497 137.3286 153.3181 15.20061156  1887
Epoch: 2026-05-10T04:00Z
TLE epoch observation values (Epoch: 2026-05-10T04:00:01.998Z)
Latitude
-68.25401°
Longitude
119.59771°
Altitude
535.369 km
Speed
7.591 km/s
True Right ascension
03h 10m 19s
True Declination
-68° 07' 54"
Sunlit
Object was in daylight at epoch
Visualization orbit readout
Latitude
Unknown
Longitude
Unknown
Altitude
Unknown
Speed
Unknown
Apparent Right ascension
Unknown
Apparent Declination
Unknown
Sunlit
N/A
Visualization observer readout
Local Sidereal Time
19:47:40
Azimuth
Unknown
Elevation
Unknown
Doppler factor
Unknown
Orbital elements
Apogee altitude
507.092 km
Perigee altitude
498.151 km
Semi-major axis
6,880.759 km
Eccentricity
0.00065
Inclination
97.407°
RAAN
28.6668°
Arg. of periapsis
137.3286°
True anomaly
153.35151°
Mean anomaly
153.3181°
Eccentric anomaly
153.33481°
Mean motion
3.80267 °/min
Orbital period
94.67 mins
BSTAR
0.0027343
Loading maneuver chart data...
Computing Atmospheric mass density...
Loading historical data...
Loading historical data...
Loading historical data...
Loading historical data...
Loading historical data...
Loading historical data...
Loading historical data...

Documentation

Showing up to 5 results
|